| time (UTC) | temp F | wind direction | speed MPH | gust MPH | rain 1hr in | rain 24hr in | rain mn in | humidity % | barometer mb |
| 20260906214542 | 59 | 11 | 4.0 | 8.0 | 0.00 | 0.13 | 0.13 | 53 | 1016.8 |
| 20260906213037 | 61 | 315 | 3.0 | 9.0 | 0.00 | 0.13 | 0.13 | 55 | 1016.5 |
| 20260906211535 | 61 | 355 | 3.0 | 8.0 | 0.00 | 0.13 | 0.13 | 54 | 1016.5 |
| 20260906210037 | 60 | 346 | 2.0 | 6.0 | 0.00 | 0.13 | 0.13 | 53 | 1016.4 |
| 20260906204533 | 59 | 331 | 1.0 | 5.0 | 0.00 | 0.13 | 0.13 | 56 | 1016.5 |
| 20260906203034 | 58 | 337 | 2.0 | 4.0 | 0.00 | 0.13 | 0.13 | 58 | 1016.5 |
| 20260906201539 | 58 | 5 | 1.0 | 6.0 | 0.00 | 0.13 | 0.13 | 59 | 1016.6 |
| 20260906200024 | 58 | 197 | 1.0 | 4.0 | 0.00 | 0.13 | 0.13 | 59 | 1016.7 |
| 20260906194521 | 57 | 334 | 1.0 | 3.0 | 0.00 | 0.13 | 0.13 | 61 | 1016.8 |
| 20260906193020 | 56 | 327 | 2.0 | 4.0 | 0.00 | 0.13 | 0.13 | 65 | 1017.0 |
| 20260906191518 | 56 | 323 | 2.0 | 6.0 | 0.00 | 0.13 | 0.13 | 63 | 1017.0 |
| 20260906190016 | 55 | 344 | 1.0 | 7.0 | 0.00 | 0.13 | 0.13 | 66 | 1017.0 |
| 20260906184515 | 54 | 25 | 1.0 | 5.0 | 0.00 | 0.13 | 0.13 | 68 | 1017.1 |
| 20260906183018 | 55 | 337 | 1.0 | 4.0 | 0.00 | 0.13 | 0.13 | 66 | 1017.2 |
| 20260906181530 | 54 | 329 | 1.0 | 4.0 | 0.00 | 0.13 | 0.13 | 71 | 1017.3 |
| 20260906180019 | 52 | 319 | 0.0 | 3.0 | 0.00 | 0.13 | 0.13 | 72 | 1017.3 |
| 20260906174507 | 52 | 76 | 0.0 | 3.0 | 0.00 | 0.13 | 0.13 | 73 | 1017.4 |
| 20260906173005 | 52 | 38 | 0.0 | 2.0 | 0.00 | 0.13 | 0.13 | 73 | 1017.4 |
| 20260906171507 | 51 | 131 | 0.0 | 2.0 | 0.00 | 0.13 | 0.13 | 74 | 1017.3 |
| 20260906170001 | 50 | 38 | 0.0 | 3.0 | 0.00 | 0.13 | 0.13 | 76 | 1017.3 |
| 20260906164600 | 49 | 225 | 0.0 | 2.0 | 0.00 | 0.13 | 0.13 | 80 | 1017.5 |
| 20260906163100 | 50 | 256 | 0.0 | 1.0 | 0.00 | 0.13 | 0.13 | 80 | 1017.5 |
| 20260906161623 | 50 | 325 | 0.0 | 2.0 | 0.00 | 0.13 | 0.13 | 80 | 1017.4 |
| 20260906160100 | 50 | 93 | 0.0 | 2.0 | 0.00 | 0.13 | 0.13 | 80 | 1017.5 |
| 20260906154605 | 49 | 136 | 1.0 | 3.0 | 0.00 | 0.13 | 0.13 | 80 | 1017.5 |
| 20260906153111 | 50 | 137 | 2.0 | 4.0 | 0.00 | 0.13 | 0.13 | 79 | 1017.4 |
| 20260906151558 | 48 | 70 | 0.0 | 3.0 | 0.00 | 0.13 | 0.13 | 82 | 1017.4 |
| 20260906150107 | 48 | 223 | 0.0 | 2.0 | 0.00 | 0.13 | 0.13 | 88 | 1017.4 |
| 20260906144556 | 46 | 142 | 0.0 | 2.0 | 0.00 | 0.13 | 0.13 | 88 | 1017.2 |
| 20260906143055 | 45 | 71 | 1.0 | 3.0 | 0.00 | 0.13 | 0.13 | 87 | 1017.1 |
| 20260906141612 | 44 | 39 | 0.0 | 0.0 | 0.00 | 0.13 | 0.13 | 88 | 1017.1 |
| 20260906140052 | 45 | 39 | 0.0 | 0.0 | 0.00 | 0.13 | 0.13 | 88 | 1017.0 |
| 20260906134551 | 45 | 338 | 0.0 | 2.0 | 0.00 | 0.13 | 0.13 | 87 | 1016.7 |
| 20260906133057 | 45 | 135 | 0.0 | 0.0 | 0.00 | 0.13 | 0.13 | 88 | 1016.8 |
| 20260906131600 | 46 | 42 | 0.0 | 0.0 | 0.00 | 0.13 | 0.13 | 89 | 1016.6 |
| 20260906130055 | 46 | 128 | 0.0 | 0.0 | 0.00 | 0.13 | 0.13 | 89 | 1016.4 |
| 20260906124544 | 47 | 120 | 0.0 | 1.0 | 0.00 | 0.13 | 0.13 | 88 | 1016.5 |
| 20260906123042 | 47 | 186 | 1.0 | 5.0 | 0.01 | 0.13 | 0.13 | 88 | 1016.6 |
| 20260906121542 | 47 | 124 | 0.0 | 2.0 | 0.04 | 0.13 | 0.13 | 90 | 1016.6 |
| 20260906120039 | 47 | 205 | 0.0 | 3.0 | 0.06 | 0.13 | 0.13 | 90 | 1016.9 |
| 20260906114546 | 47 | 210 | 1.0 | 5.0 | 0.06 | 0.13 | 0.13 | 91 | 1016.9 |
| 20260906113037 | 48 | 204 | 1.0 | 3.0 | 0.06 | 0.11 | 0.11 | 91 | 1017.5 |
| 20260906111543 | 48 | 259 | 1.0 | 4.0 | 0.06 | 0.09 | 0.09 | 91 | 1017.7 |
| 20260906110036 | 48 | 209 | 0.0 | 2.0 | 0.05 | 0.07 | 0.07 | 91 | 1017.6 |
| 20260906104536 | 48 | 322 | 0.0 | 4.0 | 0.06 | 0.07 | 0.07 | 90 | 1017.3 |
| 20260906103034 | 48 | 286 | 2.0 | 9.0 | 0.05 | 0.05 | 0.05 | 90 | 1017.5 |
| 20260906101535 | 48 | 246 | 1.0 | 4.0 | 0.03 | 0.03 | 0.03 | 89 | 1017.5 |
| 20260906100033 | 49 | 236 | 0.0 | 2.0 | 0.02 | 0.02 | 0.02 | 89 | 1017.2 |
| 20260906094527 | 49 | 208 | 0.0 | 2.0 | 0.01 | 0.01 | 0.01 | 88 | 1017.2 |
| 20260906093025 | 49 | 209 | 0.0 | 2.0 | 0.00 | 0.00 | 0.00 | 86 | 1017.2 |
| 20260906091527 | 49 | 194 | 0.0 | 2.0 | 0.00 | 0.00 | 0.00 | 86 | 1017.1 |
| 20260906090025 | 50 | 316 | 1.0 | 3.0 | 0.00 | 0.00 | 0.00 | 84 | 1017.2 |
| 20260906084522 | 50 | 355 | 1.0 | 4.0 | 0.00 | 0.00 | 0.00 | 81 | 1017.5 |
| 20260906083021 | 50 | 322 | 3.0 | 7.0 | 0.00 | 0.00 | 0.00 | 82 | 1017.6 |
| 20260906081522 | 50 | 256 | 0.0 | 4.0 | 0.00 | 0.00 | 0.00 | 82 | 1017.6 |
| 20260906080022 | 49 | 237 | 1.0 | 4.0 | 0.00 | 0.00 | 0.00 | 84 | 1017.4 |
| 20260906074515 | 49 | 205 | 0.0 | 3.0 | 0.00 | 0.00 | 0.00 | 85 | 1017.4 |
| 20260906073015 | 49 | 218 | 0.0 | 3.0 | 0.00 | 0.00 | 0.00 | 84 | 1017.6 |
| 20260906071519 | 49 | 211 | 0.0 | 3.0 | 0.00 | 0.00 | 0.00 | 84 | 1017.7 |
| 20260906070009 | 50 | 219 | 0.0 | 2.0 | 0.00 | 0.00 | 0.00 | 83 | 1018.0 |
| 20260906064508 | 50 | 265 | 0.0 | 4.0 | 0.00 | 0.00 | 0.00 | 82 | 1017.7 |
| 20260906063010 | 51 | 241 | 0.0 | 4.0 | 0.00 | 0.00 | 0.00 | 81 | 1018.2 |
| 20260906061508 | 51 | 269 | 1.0 | 7.0 | 0.00 | 0.00 | 0.00 | 80 | 1018.4 |
| 20260906060006 | 52 | 288 | 3.0 | 8.0 | 0.00 | 0.00 | 0.00 | 78 | 1018.4 |
| 20260906054506 | 53 | 267 | 3.0 | 8.0 | 0.00 | 0.00 | 0.00 | 76 | 1018.5 |
| 20260906053006 | 53 | 289 | 2.0 | 11.0 | 0.00 | 0.00 | 0.00 | 73 | 1018.6 |
| 20260906051511 | 55 | 212 | 6.0 | 11.0 | 0.00 | 0.00 | 0.00 | 69 | 1018.3 |
| 20260906050005 | 57 | 239 | 5.0 | 12.0 | 0.00 | 0.00 | 0.00 | 61 | 1017.9 |
| 20260906044507 | 58 | 250 | 1.0 | 7.0 | 0.00 | 0.00 | 0.00 | 58 | 1017.6 |
| 20260906043011 | 58 | 264 | 2.0 | 5.0 | 0.00 | 0.00 | 0.00 | 55 | 1017.3 |
| 20260906041505 | 58 | 242 | 0.0 | 3.0 | 0.00 | 0.00 | 0.00 | 56 | 1017.3 |
| 20260906040004 | 59 | 307 | 0.0 | 4.0 | 0.00 | 0.00 | 0.00 | 56 | 1017.0 |
| 20260906034503 | 58 | 280 | 0.0 | 2.0 | 0.00 | 0.00 | 0.00 | 61 | 1016.8 |
| 20260906033004 | 60 | 10 | 1.0 | 5.0 | 0.00 | 0.00 | 0.00 | 57 | 1016.5 |
| 20260906031502 | 61 | 327 | 2.0 | 5.0 | 0.00 | 0.00 | 0.00 | 57 | 1016.6 |
| 20260906030004 | 62 | 323 | 0.0 | 2.0 | 0.00 | 0.00 | 0.00 | 51 | 1016.7 |
| 20260906024501 | 63 | 264 | 0.0 | 3.0 | 0.00 | 0.00 | 0.00 | 46 | 1016.7 |
| 20260906023003 | 63 | 9 | 0.0 | 4.0 | 0.00 | 0.00 | 0.00 | 44 | 1016.4 |
| 20260906021501 | 63 | 17 | 3.0 | 7.0 | 0.00 | 0.00 | 0.00 | 45 | 1016.3 |
| 20260906020100 | 64 | 103 | 0.0 | 4.0 | 0.00 | 0.00 | 0.00 | 45 | 1016.3 |
| 20260906014559 | 65 | 98 | 1.0 | 5.0 | 0.00 | 0.00 | 0.00 | 43 | 1016.4 |
| 20260906013059 | 66 | 101 | 1.0 | 5.0 | 0.00 | 0.00 | 0.00 | 43 | 1016.4 |
| 20260906011558 | 66 | 34 | 0.0 | 4.0 | 0.00 | 0.00 | 0.00 | 41 | 1016.5 |
| 20260906010137 | 66 | 331 | 1.0 | 5.0 | 0.00 | 0.06 | 0.00 | 40 | 1016.5 |
| 20260906004615 | 66 | 343 | 3.0 | 6.0 | 0.00 | 0.06 | 0.00 | 41 | 1016.6 |
| 20260906003056 | 66 | 327 | 3.0 | 6.0 | 0.00 | 0.06 | 0.00 | 39 | 1016.5 |
| 20260906001603 | 67 | 333 | 1.0 | 3.0 | 0.00 | 0.06 | 0.00 | 39 | 1016.6 |
| 20260906000054 | 67 | 330 | 1.0 | 6.0 | 0.00 | 0.07 | 0.00 | 41 | 1016.6 |
| 20260905234553 | 67 | 313 | 2.0 | 5.0 | 0.00 | 0.07 | 0.00 | 40 | 1016.7 |
| 20260905233052 | 67 | 279 | 2.0 | 6.0 | 0.00 | 0.07 | 0.00 | 40 | 1016.7 |
| 20260905231550 | 68 | 329 | 2.0 | 7.0 | 0.00 | 0.07 | 0.00 | 39 | 1016.9 |
| 20260905230050 | 67 | 324 | 3.0 | 6.0 | 0.00 | 0.07 | 0.00 | 39 | 1017.0 |
| 20260905224549 | 68 | 171 | 0.0 | 7.0 | 0.00 | 0.07 | 0.00 | 40 | 1016.9 |
| 20260905223052 | 68 | 331 | 3.0 | 8.0 | 0.00 | 0.07 | 0.00 | 41 | 1017.2 |
| 20260905221543 | 67 | 261 | 2.0 | 6.0 | 0.00 | 0.07 | 0.00 | 43 | 1017.3 |
| 20260905220041 | 67 | 13 | 5.0 | 9.0 | 0.00 | 0.07 | 0.00 | 43 | 1017.4 |